{"data":{"norad_id":43879,"intl_designator":"2018-111D","name":"ISAT","alt_names":[],"object_type":"PAYLOAD","status":"ACTIVE","operator":null,"country":"GER","launch_date":"2018-12-27","launch_site_code":"VOSTO","launch_vehicle":null,"mission":null,"orbit_class":"UNKNOWN","rcs_meters":null,"size_class":null,"mass_kg":null,"dimensions":null,"purposes":[],"wikipedia_slug":null,"has_3d_model":false,"image_url":null,"decayed_at":null,"tle_current":{"epoch":"2026-09-19T02:33:49.223808Z","epoch_age_seconds":178639,"freshness":"STALE","line1":"1 43879U 18111D   26262.10681972  .00593785  16054-3  11229-2 0  9998","line2":"2 43879  97.5724 206.3379 0009428 140.9659 219.2301 16.00711699425979","mean_motion":16.00711699,"eccentricity":0.0009428,"inclination_deg":97.5724,"raan_deg":206.3379,"arg_perigee_deg":140.9659,"mean_anomaly_deg":219.2301,"bstar":0.0011229,"rev_number":42597,"period_min":89.959984730517,"perigee_km":266.17650482111,"apogee_km":278.7168453989,"semimajor_km":6650.58367511,"source":"CELESTRAK","updated_at":"2026-09-20T09:00:14.415446Z"}}}